Year,Month,Day,Hour,Minute,Value (Times are PST for temperature in C)
2016,06,26,00,00,13.90
2016,06,26,00,01,13.90
2016,06,26,00,02,13.80
2016,06,26,00,03,13.80
2016,06,26,00,04,13.80
2016,06,26,00,05,13.80
2016,06,26,00,06,13.80
2016,06,26,00,07,13.80
2016,06,26,00,08,13.70
2016,06,26,00,09,13.70
2016,06,26,00,10,13.70
2016,06,26,00,11,13.70
2016,06,26,00,12,13.70
2016,06,26,00,13,13.70
2016,06,26,00,14,13.60
2016,06,26,00,15,13.60
2016,06,26,00,16,13.60
2016,06,26,00,17,13.60
2016,06,26,00,18,13.60
2016,06,26,00,19,13.60
2016,06,26,00,20,13.60
2016,06,26,00,21,13.50
2016,06,26,00,22,13.50
2016,06,26,00,23,13.50
2016,06,26,00,24,13.40
2016,06,26,00,25,13.40
2016,06,26,00,26,13.40
2016,06,26,00,27,13.40
2016,06,26,00,28,13.30
2016,06,26,00,29,13.30
2016,06,26,00,30,13.30
2016,06,26,00,31,13.30
2016,06,26,00,32,13.20
2016,06,26,00,33,13.20
2016,06,26,00,34,13.20
2016,06,26,00,35,13.20
2016,06,26,00,36,13.20
2016,06,26,00,37,13.20
2016,06,26,00,38,13.20
2016,06,26,00,39,13.20
2016,06,26,00,40,13.20
2016,06,26,00,41,13.20
2016,06,26,00,42,13.20
2016,06,26,00,43,13.20
2016,06,26,00,44,13.20
2016,06,26,00,45,13.20
2016,06,26,00,46,13.20
2016,06,26,00,47,13.20
2016,06,26,00,48,13.20
2016,06,26,00,49,13.20
2016,06,26,00,50,13.20
2016,06,26,00,51,13.20
2016,06,26,00,52,13.10
2016,06,26,00,53,13.10
2016,06,26,00,54,13.10
2016,06,26,00,55,13.10
2016,06,26,00,56,13.00
2016,06,26,00,57,13.00
2016,06,26,00,58,13.00
2016,06,26,00,59,13.00
2016,06,26,01,00,13.00
2016,06,26,01,01,12.90
2016,06,26,01,02,12.90
2016,06,26,01,03,12.90
2016,06,26,01,04,12.90
2016,06,26,01,05,12.90
2016,06,26,01,06,12.90
2016,06,26,01,07,12.90
2016,06,26,01,08,12.90
2016,06,26,01,09,12.80
2016,06,26,01,10,12.80
2016,06,26,01,11,12.80
2016,06,26,01,12,12.80
2016,06,26,01,13,12.80
2016,06,26,01,14,12.80
2016,06,26,01,15,12.80
2016,06,26,01,16,12.80
2016,06,26,01,17,12.80
2016,06,26,01,18,12.80
2016,06,26,01,19,12.80
2016,06,26,01,20,12.80
2016,06,26,01,21,12.80
2016,06,26,01,22,12.70
2016,06,26,01,23,12.70
2016,06,26,01,24,12.70
2016,06,26,01,25,12.70
2016,06,26,01,26,12.70
2016,06,26,01,27,12.70
2016,06,26,01,28,12.80
2016,06,26,01,29,12.80
2016,06,26,01,30,12.80
2016,06,26,01,31,12.80
2016,06,26,01,32,12.80
2016,06,26,01,33,12.80
2016,06,26,01,34,12.80
2016,06,26,01,35,12.80
2016,06,26,01,36,12.80
2016,06,26,01,37,12.80
2016,06,26,01,38,12.80
2016,06,26,01,39,12.80
2016,06,26,01,40,12.80
2016,06,26,01,41,12.80
2016,06,26,01,42,12.80
2016,06,26,01,43,12.80
2016,06,26,01,44,12.70
2016,06,26,01,45,12.70
2016,06,26,01,46,12.70
2016,06,26,01,47,12.70
2016,06,26,01,48,12.70
2016,06,26,01,49,12.70
2016,06,26,01,50,12.60
2016,06,26,01,51,12.60
2016,06,26,01,52,12.60
2016,06,26,01,53,12.60
2016,06,26,01,54,12.60
2016,06,26,01,55,12.60
2016,06,26,01,56,12.60
2016,06,26,01,57,12.70
2016,06,26,01,58,12.70
2016,06,26,01,59,12.70
2016,06,26,02,00,12.70
2016,06,26,02,01,12.80
2016,06,26,02,02,12.80
2016,06,26,02,03,12.80
2016,06,26,02,04,12.80
2016,06,26,02,05,12.70
2016,06,26,02,06,12.70
2016,06,26,02,07,12.70
2016,06,26,02,08,12.70
2016,06,26,02,09,12.70
2016,06,26,02,10,12.60
2016,06,26,02,11,12.60
2016,06,26,02,12,12.60
2016,06,26,02,13,12.60
2016,06,26,02,14,12.60
2016,06,26,02,15,12.60
2016,06,26,02,16,12.50
2016,06,26,02,17,12.50
2016,06,26,02,18,12.50
2016,06,26,02,19,12.50
2016,06,26,02,20,12.50
2016,06,26,02,21,12.40
2016,06,26,02,22,12.40
2016,06,26,02,23,12.40
2016,06,26,02,24,12.40
2016,06,26,02,25,12.30
2016,06,26,02,26,12.30
2016,06,26,02,27,12.30
2016,06,26,02,28,12.30
2016,06,26,02,29,12.30
2016,06,26,02,30,12.30
2016,06,26,02,31,12.30
2016,06,26,02,32,12.20
2016,06,26,02,33,12.20
2016,06,26,02,34,12.30
2016,06,26,02,35,12.30
2016,06,26,02,36,12.30
2016,06,26,02,37,12.30
2016,06,26,02,38,12.30
2016,06,26,02,39,12.40
2016,06,26,02,40,12.40
2016,06,26,02,41,12.40
2016,06,26,02,42,12.40
2016,06,26,02,43,12.40
2016,06,26,02,44,12.40
2016,06,26,02,45,12.40
2016,06,26,02,46,12.50
2016,06,26,02,47,12.50
2016,06,26,02,48,12.50
2016,06,26,02,49,12.50
2016,06,26,02,50,12.50
2016,06,26,02,51,12.50
2016,06,26,02,52,12.40
2016,06,26,02,53,12.40
2016,06,26,02,54,12.40
2016,06,26,02,55,12.40
2016,06,26,02,56,12.40
2016,06,26,02,57,12.40
2016,06,26,02,58,12.30
2016,06,26,02,59,12.30
2016,06,26,03,00,12.30
2016,06,26,03,01,12.30
2016,06,26,03,02,12.30
2016,06,26,03,03,12.30
2016,06,26,03,05,12.30
2016,06,26,03,06,12.20
2016,06,26,03,07,12.20
2016,06,26,03,08,12.20
2016,06,26,03,09,12.20
2016,06,26,03,10,12.20
2016,06,26,03,11,12.20
2016,06,26,03,12,12.20
2016,06,26,03,13,12.10
2016,06,26,03,14,12.10
2016,06,26,03,15,12.10
2016,06,26,03,16,12.10
2016,06,26,03,17,12.10
2016,06,26,03,18,12.10
2016,06,26,03,19,12.10
2016,06,26,03,20,12.10
2016,06,26,03,21,12.10
2016,06,26,03,22,12.10
2016,06,26,03,23,12.10
2016,06,26,03,24,12.10
2016,06,26,03,25,12.10
2016,06,26,03,26,12.10
2016,06,26,03,27,12.10
2016,06,26,03,28,12.10
2016,06,26,03,29,12.10
2016,06,26,03,30,12.10
2016,06,26,03,31,12.10
2016,06,26,03,32,12.10
2016,06,26,03,33,12.10
2016,06,26,03,34,12.10
2016,06,26,03,35,12.10
2016,06,26,03,36,12.10
2016,06,26,03,37,12.10
2016,06,26,03,38,12.10
2016,06,26,03,39,12.10
2016,06,26,03,40,12.10
2016,06,26,03,41,12.10
2016,06,26,03,42,12.10
2016,06,26,03,43,12.10
2016,06,26,03,44,12.00
2016,06,26,03,45,12.00
2016,06,26,03,46,12.00
2016,06,26,03,47,12.00
2016,06,26,03,48,12.00
2016,06,26,03,49,12.00
2016,06,26,03,50,12.00
2016,06,26,03,51,12.00
2016,06,26,03,52,12.00
2016,06,26,03,53,12.00
2016,06,26,03,54,12.00
2016,06,26,03,55,12.00
2016,06,26,03,56,12.00
2016,06,26,03,57,12.00
2016,06,26,03,58,12.00
2016,06,26,03,59,12.00
2016,06,26,04,00,12.00
2016,06,26,04,01,12.10
2016,06,26,04,02,12.10
2016,06,26,04,03,12.10
2016,06,26,04,04,12.10
2016,06,26,04,05,12.20
2016,06,26,04,06,12.30
2016,06,26,04,07,12.30
2016,06,26,04,08,12.40
2016,06,26,04,09,12.40
2016,06,26,04,10,12.50
2016,06,26,04,11,12.60
2016,06,26,04,12,12.60
2016,06,26,04,13,12.60
2016,06,26,04,14,12.70
2016,06,26,04,15,12.70
2016,06,26,04,16,12.70
2016,06,26,04,17,12.80
2016,06,26,04,18,12.80
2016,06,26,04,19,12.80
2016,06,26,04,20,12.80
2016,06,26,04,21,12.80
2016,06,26,04,22,12.80
2016,06,26,04,23,12.80
2016,06,26,04,24,12.80
2016,06,26,04,25,12.80
2016,06,26,04,26,12.80
2016,06,26,04,27,12.80
2016,06,26,04,28,12.80
2016,06,26,04,29,12.80
2016,06,26,04,30,12.70
2016,06,26,04,31,12.70
2016,06,26,04,32,12.70
2016,06,26,04,33,12.70
2016,06,26,04,34,12.70
2016,06,26,04,35,12.70
2016,06,26,04,36,12.70
2016,06,26,04,37,12.70
2016,06,26,04,38,12.60
2016,06,26,04,39,12.60
2016,06,26,04,40,12.60
2016,06,26,04,41,12.60
2016,06,26,04,42,12.60
2016,06,26,04,43,12.70
2016,06,26,04,44,12.70
2016,06,26,04,45,12.70
2016,06,26,04,46,12.70
2016,06,26,04,47,12.70
2016,06,26,04,48,12.70
2016,06,26,04,49,12.70
2016,06,26,04,50,12.70
2016,06,26,04,51,12.70
2016,06,26,04,52,12.70
2016,06,26,04,53,12.70
2016,06,26,04,54,12.70
2016,06,26,04,55,12.70
2016,06,26,04,56,12.70
2016,06,26,04,57,12.70
2016,06,26,04,58,12.70
2016,06,26,04,59,12.70
2016,06,26,05,00,12.70
2016,06,26,05,01,12.60
2016,06,26,05,02,12.60
2016,06,26,05,03,12.60
2016,06,26,05,04,12.60
2016,06,26,05,05,12.60
2016,06,26,05,06,12.60
2016,06,26,05,07,12.60
2016,06,26,05,08,12.60
2016,06,26,05,09,12.70
2016,06,26,05,10,12.70
2016,06,26,05,11,12.70
2016,06,26,05,12,12.70
2016,06,26,05,13,12.70
2016,06,26,05,14,12.70
2016,06,26,05,15,12.70
2016,06,26,05,16,12.60
2016,06,26,05,17,12.70
2016,06,26,05,18,12.70
2016,06,26,05,19,12.70
2016,06,26,05,20,12.70
2016,06,26,05,21,12.70
2016,06,26,05,22,12.70
2016,06,26,05,23,12.70
2016,06,26,05,24,12.70
2016,06,26,05,25,12.70
2016,06,26,05,26,12.70
2016,06,26,05,27,12.70
2016,06,26,05,28,12.70
2016,06,26,05,29,12.70
2016,06,26,05,30,12.60
2016,06,26,05,31,12.60
2016,06,26,05,32,12.60
2016,06,26,05,33,12.60
2016,06,26,05,34,12.70
2016,06,26,05,35,12.70
2016,06,26,05,36,12.60
2016,06,26,05,37,12.60
2016,06,26,05,38,12.60
2016,06,26,05,39,12.60
2016,06,26,05,40,12.60
2016,06,26,05,41,12.60
2016,06,26,05,42,12.60
2016,06,26,05,43,12.60
2016,06,26,05,44,12.60
2016,06,26,05,45,12.60
2016,06,26,05,46,12.60
2016,06,26,05,47,12.60
2016,06,26,05,48,12.60
2016,06,26,05,49,12.60
2016,06,26,05,50,12.60
2016,06,26,05,51,12.60
2016,06,26,05,52,12.60
2016,06,26,05,53,12.60
2016,06,26,05,54,12.60
2016,06,26,05,55,12.60
2016,06,26,05,56,12.60
2016,06,26,05,57,12.60
2016,06,26,05,58,12.60
2016,06,26,05,59,12.60
2016,06,26,06,00,12.70
2016,06,26,06,01,12.70
2016,06,26,06,02,12.70
2016,06,26,06,03,12.70
2016,06,26,06,04,12.70
2016,06,26,06,05,12.70
2016,06,26,06,06,12.70
2016,06,26,06,07,12.70
2016,06,26,06,08,12.70
2016,06,26,06,09,12.70
2016,06,26,06,10,12.70
2016,06,26,06,11,12.80
2016,06,26,06,12,12.80
2016,06,26,06,13,12.80
2016,06,26,06,14,12.80
2016,06,26,06,15,12.80
2016,06,26,06,16,12.80
2016,06,26,06,17,12.80
2016,06,26,06,18,12.80
2016,06,26,06,19,12.90
2016,06,26,06,20,12.90
2016,06,26,06,21,12.90
2016,06,26,06,22,12.90
2016,06,26,06,23,13.00
2016,06,26,06,24,13.00
2016,06,26,06,25,13.00
2016,06,26,06,26,13.10
2016,06,26,06,27,13.10
2016,06,26,06,28,13.10
2016,06,26,06,29,13.10
2016,06,26,06,30,13.10
2016,06,26,06,31,13.20
2016,06,26,06,32,13.20
2016,06,26,06,33,13.20
2016,06,26,06,34,13.20
2016,06,26,06,35,13.20
2016,06,26,06,36,13.20
2016,06,26,06,37,13.20
2016,06,26,06,38,13.30
2016,06,26,06,39,13.30
2016,06,26,06,40,13.30
2016,06,26,06,41,13.30
2016,06,26,06,42,13.30
2016,06,26,06,43,13.30
2016,06,26,06,44,13.30
2016,06,26,06,45,13.40
2016,06,26,06,46,13.40
2016,06,26,06,47,13.40
2016,06,26,06,48,13.40
2016,06,26,06,49,13.50
2016,06,26,06,50,13.50
2016,06,26,06,51,13.60
2016,06,26,06,52,13.60
2016,06,26,06,53,13.60
2016,06,26,06,54,13.60
2016,06,26,06,55,13.60
2016,06,26,06,56,13.70
2016,06,26,06,57,13.70
2016,06,26,06,58,13.70
2016,06,26,06,59,13.70
2016,06,26,07,00,13.80
2016,06,26,07,01,13.80
2016,06,26,07,02,13.80
2016,06,26,07,03,13.80
2016,06,26,07,04,13.90
2016,06,26,07,05,13.90
2016,06,26,07,06,14.00
2016,06,26,07,07,14.00
2016,06,26,07,08,14.10
2016,06,26,07,09,14.10
2016,06,26,07,10,14.20
2016,06,26,07,11,14.20
2016,06,26,07,12,14.30
2016,06,26,07,13,14.30
2016,06,26,07,14,14.30
2016,06,26,07,15,14.40
2016,06,26,07,16,14.40
2016,06,26,07,17,14.50
2016,06,26,07,18,14.50
2016,06,26,07,19,14.60
2016,06,26,07,20,14.60
2016,06,26,07,21,14.60
2016,06,26,07,22,14.70
2016,06,26,07,23,14.70
2016,06,26,07,24,14.70
2016,06,26,07,25,14.80
2016,06,26,07,26,14.80
2016,06,26,07,27,14.80
2016,06,26,07,28,14.90
2016,06,26,07,29,14.90
2016,06,26,07,30,15.00
2016,06,26,07,31,15.00
2016,06,26,07,32,15.00
2016,06,26,07,33,15.10
2016,06,26,07,34,15.10
2016,06,26,07,35,15.20
2016,06,26,07,36,15.20
2016,06,26,07,37,15.20
2016,06,26,07,38,15.20
2016,06,26,07,39,15.30
2016,06,26,07,40,15.30
2016,06,26,07,41,15.30
2016,06,26,07,42,15.30
2016,06,26,07,43,15.30
2016,06,26,07,44,15.30
2016,06,26,07,45,15.40
2016,06,26,07,46,15.40
2016,06,26,07,47,15.40
2016,06,26,07,48,15.40
2016,06,26,07,49,15.40
2016,06,26,07,50,15.40
2016,06,26,07,51,15.40
2016,06,26,07,52,15.50
2016,06,26,07,53,15.50
2016,06,26,07,54,15.50
2016,06,26,07,55,15.50
2016,06,26,07,56,15.60
2016,06,26,07,57,15.60
2016,06,26,07,58,15.60
2016,06,26,07,59,15.60
2016,06,26,08,00,15.70
2016,06,26,08,01,15.70
2016,06,26,08,02,15.70
2016,06,26,08,03,15.80
2016,06,26,08,04,15.80
2016,06,26,08,05,15.80
2016,06,26,08,06,15.90
2016,06,26,08,07,15.90
2016,06,26,08,08,16.00
2016,06,26,08,09,16.00
2016,06,26,08,10,16.10
2016,06,26,08,11,16.10
2016,06,26,08,12,16.10
2016,06,26,08,13,16.10
2016,06,26,08,14,16.10
2016,06,26,08,15,16.20
2016,06,26,08,16,16.20
2016,06,26,08,17,16.20
2016,06,26,08,18,16.30
2016,06,26,08,19,16.30
2016,06,26,08,20,16.30
2016,06,26,08,21,16.30
2016,06,26,08,22,16.40
2016,06,26,08,23,16.40
2016,06,26,08,24,16.40
2016,06,26,08,25,16.50
2016,06,26,08,26,16.50
2016,06,26,08,27,16.50
2016,06,26,08,28,16.50
2016,06,26,08,29,16.50
2016,06,26,08,30,16.60
2016,06,26,08,31,16.60
2016,06,26,08,32,16.60
2016,06,26,08,33,16.70
2016,06,26,08,34,16.70
2016,06,26,08,35,16.70
2016,06,26,08,36,16.70
2016,06,26,08,37,16.70
2016,06,26,08,38,16.60
2016,06,26,08,39,16.70
2016,06,26,08,40,16.70
2016,06,26,08,41,16.70
2016,06,26,08,42,16.70
2016,06,26,08,43,16.70
2016,06,26,08,44,16.70
2016,06,26,08,45,16.70
2016,06,26,08,46,16.70
2016,06,26,08,47,16.70
2016,06,26,08,48,16.70
2016,06,26,08,49,16.80
2016,06,26,08,50,16.80
2016,06,26,08,51,16.90
2016,06,26,08,52,16.90
2016,06,26,08,53,17.00
2016,06,26,08,54,17.10
2016,06,26,08,55,17.20
2016,06,26,08,56,17.20
2016,06,26,08,57,17.20
2016,06,26,08,58,17.30
2016,06,26,08,59,17.30
2016,06,26,09,00,17.40
2016,06,26,09,01,17.40
2016,06,26,09,02,17.50
2016,06,26,09,03,17.50
2016,06,26,09,04,17.60
2016,06,26,09,05,17.60
2016,06,26,09,06,17.60
2016,06,26,09,07,17.60
2016,06,26,09,08,17.70
2016,06,26,09,09,17.70
2016,06,26,09,10,17.70
2016,06,26,09,11,17.80
2016,06,26,09,12,17.80
2016,06,26,09,13,17.90
2016,06,26,09,14,17.90
2016,06,26,09,15,18.00
2016,06,26,09,16,18.10
2016,06,26,09,17,18.10
2016,06,26,09,18,18.10
2016,06,26,09,19,18.20
2016,06,26,09,20,18.20
2016,06,26,09,21,18.10
2016,06,26,09,22,18.10
2016,06,26,09,23,18.10
2016,06,26,09,24,18.00
2016,06,26,09,25,18.00
2016,06,26,09,26,18.00
2016,06,26,09,27,17.90
2016,06,26,09,28,17.90
2016,06,26,09,29,17.90
2016,06,26,09,30,17.90
2016,06,26,09,31,18.00
2016,06,26,09,32,18.00
2016,06,26,09,33,18.10
2016,06,26,09,34,18.10
2016,06,26,09,35,18.10
2016,06,26,09,36,18.10
2016,06,26,09,37,18.10
2016,06,26,09,38,18.10
2016,06,26,09,39,18.10
2016,06,26,09,40,18.20
2016,06,26,09,41,18.30
2016,06,26,09,42,18.30
2016,06,26,09,43,18.40
2016,06,26,09,44,18.40
2016,06,26,09,45,18.50
2016,06,26,09,46,18.50
2016,06,26,09,47,18.60
2016,06,26,09,48,18.70
2016,06,26,09,49,18.70
2016,06,26,09,50,18.80
2016,06,26,09,51,18.80
2016,06,26,09,52,18.80
2016,06,26,09,53,18.80
2016,06,26,09,54,18.80
2016,06,26,09,55,18.80
2016,06,26,09,56,18.80
2016,06,26,09,57,18.90
2016,06,26,09,58,19.00
2016,06,26,09,59,19.10
2016,06,26,10,00,19.20
2016,06,26,10,01,19.30
2016,06,26,10,02,19.30
2016,06,26,10,03,19.30
2016,06,26,10,04,19.40
2016,06,26,10,05,19.40
2016,06,26,10,06,19.40
2016,06,26,10,07,19.40
2016,06,26,10,08,19.30
2016,06,26,10,09,19.30
2016,06,26,10,10,19.30
2016,06,26,10,11,19.40
2016,06,26,10,12,19.40
2016,06,26,10,13,19.50
2016,06,26,10,14,19.50
2016,06,26,10,15,19.50
2016,06,26,10,16,19.50
2016,06,26,10,17,19.60
2016,06,26,10,18,19.60
2016,06,26,10,19,19.60
2016,06,26,10,20,19.60
2016,06,26,10,21,19.60
2016,06,26,10,22,19.60
2016,06,26,10,23,19.60
2016,06,26,10,24,19.60
2016,06,26,10,25,19.70
2016,06,26,10,26,19.70
2016,06,26,10,27,19.80
2016,06,26,10,28,19.80
2016,06,26,10,29,19.80
2016,06,26,10,30,19.90
2016,06,26,10,31,19.90
2016,06,26,10,32,19.90
2016,06,26,10,33,19.90
2016,06,26,10,34,19.90
2016,06,26,10,35,19.90
2016,06,26,10,36,19.90
2016,06,26,10,37,19.90
2016,06,26,10,38,19.80
2016,06,26,10,39,19.70
2016,06,26,10,40,19.70
2016,06,26,10,41,19.60
2016,06,26,10,42,19.60
2016,06,26,10,43,19.60
2016,06,26,10,44,19.60
2016,06,26,10,45,19.60
2016,06,26,10,46,19.60
2016,06,26,10,47,19.60
2016,06,26,10,48,19.60
2016,06,26,10,49,19.60
2016,06,26,10,50,19.70
2016,06,26,10,51,19.70
2016,06,26,10,52,19.70
2016,06,26,10,53,19.80
2016,06,26,10,54,19.90
2016,06,26,10,55,20.00
2016,06,26,10,56,20.10
2016,06,26,10,57,20.10
2016,06,26,10,58,20.20
2016,06,26,10,59,20.20
2016,06,26,11,00,20.20
2016,06,26,11,01,20.20
2016,06,26,11,02,20.20
2016,06,26,11,03,20.20
2016,06,26,11,04,20.20
2016,06,26,11,05,20.30
2016,06,26,11,06,20.40
2016,06,26,11,07,20.40
2016,06,26,11,08,20.40
2016,06,26,11,09,20.50
2016,06,26,11,10,20.50
2016,06,26,11,11,20.60
2016,06,26,11,12,20.60
2016,06,26,11,13,20.70
2016,06,26,11,14,20.70
2016,06,26,11,15,20.70
2016,06,26,11,16,20.80
2016,06,26,11,17,20.80
2016,06,26,11,18,20.80
2016,06,26,11,19,20.80
2016,06,26,11,20,20.80
2016,06,26,11,21,20.80
2016,06,26,11,22,20.80
2016,06,26,11,23,20.80
2016,06,26,11,24,20.80
2016,06,26,11,25,20.80
2016,06,26,11,26,20.90
2016,06,26,11,27,20.90
2016,06,26,11,28,21.00
2016,06,26,11,29,21.10
2016,06,26,11,30,21.10
2016,06,26,11,31,21.10
2016,06,26,11,32,21.10
2016,06,26,11,33,21.10
2016,06,26,11,34,21.00
2016,06,26,11,35,21.00
2016,06,26,11,36,21.00
2016,06,26,11,37,21.00
2016,06,26,11,38,21.00
2016,06,26,11,39,21.00
2016,06,26,11,40,21.10
2016,06,26,11,41,21.10
2016,06,26,11,42,21.10
2016,06,26,11,43,21.10
2016,06,26,11,44,21.00
2016,06,26,11,45,21.00
2016,06,26,11,46,21.00
2016,06,26,11,47,20.90
2016,06,26,11,48,20.90
2016,06,26,11,49,20.90
2016,06,26,11,50,20.90
2016,06,26,11,51,20.90
2016,06,26,11,52,20.90
2016,06,26,11,53,20.90
2016,06,26,11,54,21.00
2016,06,26,11,55,21.10
2016,06,26,11,56,21.10
2016,06,26,11,57,21.10
2016,06,26,11,58,21.10
2016,06,26,11,59,21.10
2016,06,26,12,00,21.10
2016,06,26,12,01,21.20
2016,06,26,12,02,21.30
2016,06,26,12,03,21.30
2016,06,26,12,04,21.40
2016,06,26,12,05,21.40
2016,06,26,12,06,21.50
2016,06,26,12,07,21.60
2016,06,26,12,08,21.70
2016,06,26,12,09,21.70
2016,06,26,12,10,21.70
2016,06,26,12,11,21.70
2016,06,26,12,12,21.70
2016,06,26,12,13,21.70
2016,06,26,12,14,21.80
2016,06,26,12,15,21.80
2016,06,26,12,16,21.90
2016,06,26,12,17,21.90
2016,06,26,12,18,22.00
2016,06,26,12,19,22.10
2016,06,26,12,20,22.10
2016,06,26,12,21,22.00
2016,06,26,12,22,22.00
2016,06,26,12,23,21.90
2016,06,26,12,24,21.80
2016,06,26,12,25,21.70
2016,06,26,12,26,21.60
2016,06,26,12,27,21.40
2016,06,26,12,28,21.40
2016,06,26,12,29,21.30
2016,06,26,12,30,21.30
2016,06,26,12,31,21.30
2016,06,26,12,32,21.30
2016,06,26,12,33,21.30
2016,06,26,12,34,21.30
2016,06,26,12,35,21.20
2016,06,26,12,36,21.20
2016,06,26,12,37,21.20
2016,06,26,12,38,21.20
2016,06,26,12,39,21.20
2016,06,26,12,40,21.20
2016,06,26,12,41,21.30
2016,06,26,12,42,21.40
2016,06,26,12,43,21.50
2016,06,26,12,44,21.50
2016,06,26,12,45,21.60
2016,06,26,12,46,21.60
2016,06,26,12,47,21.60
2016,06,26,12,48,21.60
2016,06,26,12,49,21.60
2016,06,26,12,50,21.60
2016,06,26,12,51,21.60
2016,06,26,12,52,21.60
2016,06,26,12,53,21.50
2016,06,26,12,54,21.50
2016,06,26,12,55,21.50
2016,06,26,12,56,21.50
2016,06,26,12,57,21.50
2016,06,26,12,58,21.60
2016,06,26,12,59,21.60
2016,06,26,13,00,21.60
2016,06,26,13,01,21.60
2016,06,26,13,02,21.60
2016,06,26,13,03,21.60
2016,06,26,13,04,21.70
2016,06,26,13,05,21.70
2016,06,26,13,06,21.70
2016,06,26,13,07,21.80
2016,06,26,13,08,21.80
2016,06,26,13,09,21.70
2016,06,26,13,10,21.70
2016,06,26,13,11,21.80
2016,06,26,13,12,21.80
2016,06,26,13,13,21.90
2016,06,26,13,14,21.90
2016,06,26,13,15,22.00
2016,06,26,13,16,22.10
2016,06,26,13,17,22.10
2016,06,26,13,18,22.20
2016,06,26,13,19,22.30
2016,06,26,13,20,22.30
2016,06,26,13,21,22.40
2016,06,26,13,22,22.50
2016,06,26,13,23,22.50
2016,06,26,13,24,22.60
2016,06,26,13,25,22.70
2016,06,26,13,26,22.70
2016,06,26,13,27,22.80
2016,06,26,13,28,22.80
2016,06,26,13,29,22.80
2016,06,26,13,30,22.80
2016,06,26,13,31,22.80
2016,06,26,13,32,22.90
2016,06,26,13,33,22.90
2016,06,26,13,34,23.00
2016,06,26,13,35,23.10
2016,06,26,13,36,23.10
2016,06,26,13,37,23.10
2016,06,26,13,38,23.10
2016,06,26,13,39,23.10
2016,06,26,13,40,23.10
2016,06,26,13,41,23.10
2016,06,26,13,42,23.10
2016,06,26,13,43,23.10
2016,06,26,13,44,23.00
2016,06,26,13,45,22.90
2016,06,26,13,46,22.90
2016,06,26,13,47,22.90
2016,06,26,13,48,22.90
2016,06,26,13,49,23.00
2016,06,26,13,50,23.10
2016,06,26,13,51,23.30
2016,06,26,13,52,23.40
2016,06,26,13,53,23.50
2016,06,26,13,54,23.60
2016,06,26,13,55,23.60
2016,06,26,13,56,23.70
2016,06,26,13,57,23.60
2016,06,26,13,58,23.60
2016,06,26,13,59,23.50
2016,06,26,14,00,23.50
2016,06,26,14,01,23.50
2016,06,26,14,02,23.50
2016,06,26,14,03,23.50
2016,06,26,14,04,23.60
2016,06,26,14,05,23.60
2016,06,26,14,06,23.70
2016,06,26,14,07,23.70
2016,06,26,14,08,23.70
2016,06,26,14,09,23.60
2016,06,26,14,10,23.60
2016,06,26,14,11,23.60
2016,06,26,14,12,23.60
2016,06,26,14,13,23.60
2016,06,26,14,14,23.70
2016,06,26,14,15,23.70
2016,06,26,14,16,23.70
2016,06,26,14,17,23.70
2016,06,26,14,18,23.80
2016,06,26,14,19,23.80
2016,06,26,14,20,23.90
2016,06,26,14,21,24.00
2016,06,26,14,22,24.00
2016,06,26,14,23,24.00
2016,06,26,14,24,24.00
2016,06,26,14,25,23.90
2016,06,26,14,26,23.90
2016,06,26,14,27,23.80
2016,06,26,14,28,23.80
2016,06,26,14,29,23.80
2016,06,26,14,30,23.80
2016,06,26,14,31,23.80
2016,06,26,14,32,23.90
2016,06,26,14,33,23.90
2016,06,26,14,34,23.90
2016,06,26,14,35,23.90
2016,06,26,14,36,23.90
2016,06,26,14,37,24.00
2016,06,26,14,38,24.10
2016,06,26,14,39,24.10
2016,06,26,14,40,24.20
2016,06,26,14,41,24.20
2016,06,26,14,42,24.20
2016,06,26,14,43,24.20
2016,06,26,14,44,24.10
2016,06,26,14,45,24.10
2016,06,26,14,46,24.10
2016,06,26,14,47,24.20
2016,06,26,14,48,24.10
2016,06,26,14,49,24.10
2016,06,26,14,50,24.10
2016,06,26,14,51,24.20
2016,06,26,14,52,24.20
2016,06,26,14,53,24.30
2016,06,26,14,54,24.30
2016,06,26,14,55,24.30
2016,06,26,14,56,24.30
2016,06,26,14,57,24.40
2016,06,26,14,58,24.40
2016,06,26,14,59,24.40
2016,06,26,15,00,24.40
2016,06,26,15,01,24.40
2016,06,26,15,02,24.40
2016,06,26,15,03,24.40
2016,06,26,15,04,24.40
2016,06,26,15,05,24.40
2016,06,26,15,06,24.40
2016,06,26,15,07,24.50
2016,06,26,15,08,24.50
2016,06,26,15,09,24.50
2016,06,26,15,10,24.50
2016,06,26,15,11,24.50
2016,06,26,15,12,24.60
2016,06,26,15,13,24.60
2016,06,26,15,14,24.60
2016,06,26,15,15,24.70
2016,06,26,15,16,24.80
2016,06,26,15,17,24.80
2016,06,26,15,18,24.80
2016,06,26,15,19,24.80
2016,06,26,15,20,24.80
2016,06,26,15,21,24.70
2016,06,26,15,22,24.70
2016,06,26,15,23,24.60
2016,06,26,15,24,24.60
2016,06,26,15,25,24.60
2016,06,26,15,26,24.60
2016,06,26,15,27,24.70
2016,06,26,15,28,24.70
2016,06,26,15,29,24.80
2016,06,26,15,30,24.80
2016,06,26,15,31,24.80
2016,06,26,15,32,24.80
2016,06,26,15,33,24.80
2016,06,26,15,34,24.70
2016,06,26,15,35,24.60
2016,06,26,15,36,24.50
2016,06,26,15,37,24.50
2016,06,26,15,38,24.40
2016,06,26,15,39,24.40
2016,06,26,15,40,24.40
2016,06,26,15,41,24.40
2016,06,26,15,42,24.40
2016,06,26,15,43,24.50
2016,06,26,15,44,24.40
2016,06,26,15,45,24.40
2016,06,26,15,46,24.40
2016,06,26,15,47,24.40
2016,06,26,15,48,24.30
2016,06,26,15,49,24.30
2016,06,26,15,50,24.30
2016,06,26,15,51,24.30
2016,06,26,15,52,24.30
2016,06,26,15,53,24.30
2016,06,26,15,54,24.30
2016,06,26,15,55,24.40
2016,06,26,15,56,24.40
2016,06,26,15,57,24.40
2016,06,26,15,58,24.50
2016,06,26,15,59,24.60
2016,06,26,16,00,24.70
2016,06,26,16,01,24.80
2016,06,26,16,02,24.90
2016,06,26,16,03,25.00
2016,06,26,16,04,25.10
2016,06,26,16,05,25.10
2016,06,26,16,06,25.10
2016,06,26,16,07,25.00
2016,06,26,16,08,25.00
2016,06,26,16,09,25.00
2016,06,26,16,10,25.00
2016,06,26,16,11,25.00
2016,06,26,16,12,25.00
2016,06,26,16,13,24.90
2016,06,26,16,14,24.90
2016,06,26,16,15,24.80
2016,06,26,16,16,24.80
2016,06,26,16,17,24.70
2016,06,26,16,18,24.70
2016,06,26,16,19,24.60
2016,06,26,16,20,24.70
2016,06,26,16,21,24.70
2016,06,26,16,22,24.80
2016,06,26,16,23,24.90
2016,06,26,16,24,25.00
2016,06,26,16,25,25.00
2016,06,26,16,26,25.10
2016,06,26,16,27,25.10
2016,06,26,16,28,25.10
2016,06,26,16,29,25.10
2016,06,26,16,30,25.10
2016,06,26,16,31,25.10
2016,06,26,16,32,25.10
2016,06,26,16,33,25.00
2016,06,26,16,34,25.00
2016,06,26,16,35,25.00
2016,06,26,16,36,25.00
2016,06,26,16,37,25.10
2016,06,26,16,38,25.10
2016,06,26,16,39,25.10
2016,06,26,16,40,25.20
2016,06,26,16,41,25.30
2016,06,26,16,42,25.30
2016,06,26,16,43,25.30
2016,06,26,16,44,25.40
2016,06,26,16,45,25.40
2016,06,26,16,46,25.30
2016,06,26,16,47,25.30
2016,06,26,16,48,25.30
2016,06,26,16,49,25.30
2016,06,26,16,50,25.20
2016,06,26,16,51,25.20
2016,06,26,16,52,25.30
2016,06,26,16,53,25.40
2016,06,26,16,54,25.50
2016,06,26,16,55,25.50
2016,06,26,16,56,25.60
2016,06,26,16,57,25.60
2016,06,26,16,58,25.50
2016,06,26,16,59,25.50
2016,06,26,17,00,25.50
2016,06,26,17,01,25.50
2016,06,26,17,02,25.50
2016,06,26,17,03,25.40
2016,06,26,17,04,25.40
2016,06,26,17,05,25.40
2016,06,26,17,06,25.40
2016,06,26,17,07,25.50
2016,06,26,17,08,25.50
2016,06,26,17,09,25.60
2016,06,26,17,10,25.70
2016,06,26,17,11,25.70
2016,06,26,17,12,25.80
2016,06,26,17,13,25.90
2016,06,26,17,14,25.90
2016,06,26,17,15,25.90
2016,06,26,17,16,25.90
2016,06,26,17,17,25.90
2016,06,26,17,18,26.00
2016,06,26,17,19,26.10
2016,06,26,17,20,26.20